User: anonymous   Login
Location: Newark
(40.3500°N, 15.2333°E)
Time: 21:54:59
(UTC+00:00)
Language:

NOAA 19 - Orbit

View from above orbital plane
View from above orbital plane
View from above satellite
View from above satellite

Ground track
Ground track

The orbit data is extracted from the following two-line orbital elements,

1 33591U 09005A   20052.49291821  .00000022  00000-0  37473-4 0  9992
2 33591  99.1951  54.7978 0014682  46.6627 313.5765 14.12396299568880
Epoch (UTC): 21 February 2020 11:49:48
Eccentricity: 0.0014682
inclination: 99.1951°
perigee height: 840 km
apogee height: 862 km
right ascension of ascending node: 54.7978°
argument of perigee: 46.6627°
revolutions per day: 14.12396299
mean anomaly at epoch: 313.5765°
orbit number at epoch: 56888

The dashed part of the orbit path shows where the satellite is in the earth's shadow,  

DLR